Location: Unspecified
(0.0000°N, 0.0000°E)
Time: 18:17:49
(UTC+00:00)

STARLINK 1022 - Pass Details

Date: 21 January 2020
Orbit: 549 x 551 km, 53.0° (Epoch: 23 January)

Event Time Altitude Azimuth Distance (km) Brightness Sun altitude
Rises 04:44:49 0° 201° (SSW) 2,724 7.2 -20.2°
Reaches altitude 10° 04:47:10 10° 193° (SSW) 1,826 6.4 -19.7°
Maximum altitude 04:51:03 38° 124° (SE) 840 5.1 -18.8°
Drops below altitude 10° 04:54:55 10° 55° (NE) 1,814 6.7 -17.9°
Sets 04:57:14 0° 47° (NE) 2,704 7.5 -17.3°
